Regional Weather Roundup
Issued by NWS Upton, NY

Home | Current Version | Previous Version | Text Only | Print | Product List | Glossary On
Versions: 1 2 3 4 5 6 7 8 9 10 11 12 13 14 15 16 17 18 19 20 21 22 23 24 25 26 27
000
ASUS41 KOKX 281205
RWROKX

REGIONAL WEATHER ROUNDUP
NATIONAL WEATHER SERVICE NEW YORK NY
800 AM EDT THU JUL 28 2016

NOTE: "FAIR" INDICATES FEW OR NO CLOUDS BELOW 12,000 FEET WITH NO
SIGNIFICANT WEATHER AND/OR OBSTRUCTIONS TO VISIBILITY.

NYZ071-072-176-178-NJZ106-104-281300-
NEW YORK CITY METRO AREA

CITY           SKY/WX    TMP DP  RH WIND       PRES   REMARKS
Central Park   SUNNY     80  70  71 CALM      29.95R
LaGuardia APRT PTSUNNY   79  73  82 NE7       29.91S
Kennedy INTL   MOSUNNY   79  74  84 S3        29.93R
Newark/Liberty MOSUNNY   82  70  66 CALM      29.91S
Bronx Bot Gard   N/A     81  70  69 E1        29.92F
Wall St Helipt SUNNY     77  73  88 W3        29.93R
Teterboro      SUNNY     78  64  61 CALM      29.91S
$$

NYZ177-179-078>081-281300-
LONG ISLAND NEW YORK

CITY           SKY/WX    TMP DP  RH WIND       PRES   REMARKS
Farmingdale    SUNNY     79  75  87 CALM      29.92S FOG
MacArthur/ISP  PTSUNNY   78  74  87 CALM      29.92R FOG
Shirley        PTSUNNY   77  76  96 CALM      29.93S FOG
Riverhead      NOT AVBL
Westhampton    PTSUNNY   76  72  87 CALM      29.94S FOG
Southhampton     N/A     75  73  94 W1        29.89S
Bridgehampton    N/A     72  72 100 CALM      29.92S
East Hampton   FOG       73  72  98 CALM      29.92S VSB 1/4
Montauk          N/A     72  72 100 CALM      29.94R
$$

NYZ052-065-067-281300-
HUDSON VALLEY

CITY           SKY/WX    TMP DP  RH WIND       PRES   REMARKS
White Plains   MOSUNNY   76  71  85 CALM      29.93R
Newburgh       SUNNY     72  64  78 CALM      29.96R
Montgomery     MOSUNNY   69  64  84 SW3       29.94R
Poughkeepsie   MOSUNNY   72  63  73 CALM      29.93R
Albany         MOSUNNY   72  63  73 S5        29.93R
$$

NJZ001-105-106-008-010-013-015-019>022-104-281300-
NEW JERSEY

CITY           SKY/WX    TMP DP  RH WIND       PRES   REMARKS
Newark/Liberty MOSUNNY   82  70  66 CALM      29.91S
Teterboro      SUNNY     78  64  61 CALM      29.91S
Caldwell       MOSUNNY   74  66  76 CALM      29.93S
Morristown     SUNNY     72  68  88 CALM      29.93S
Somerville     SUNNY     73  67  81 CALM      29.91R
Linden         FAIR      78  71  79 CALM      29.94R
Sussex         MOSUNNY   67  65  93 CALM      29.95S
Abdover          N/A     69  66  90 CALM      29.95S
Trenton        FOG       73  72  96 CALM      29.92S VSB 1/4
Millville      SUNNY     78  75  90 CALM      29.92S FOG
Atlantic City  SUNNY     78  73  84 CALM      29.92R
Wrightstown    NOT AVBL
Toms River     SUNNY     79  74  84 CALM      29.93S
Belmar         SUNNY     77  73  87 CALM      29.94R
$$

PAZ047>061-062-071-281300-
EASTERN PENNSYLVANIA

CITY           SKY/WX    TMP DP  RH WIND       PRES   REMARKS
Philadelphia   PTSUNNY   81  71  71 CALM      29.92R
Allentown      SUNNY     72  65  78 CALM      29.94R
Scranton       MOSUNNY   71  61  70 CALM      29.96S
$$

CTZ002-004>006-009-010-012-RIZ004-006-007-MAZ004-011-015-281300-
SOUTHERN NEW ENGLAND
 IN CT

CITY           SKY/WX    TMP DP  RH WIND       PRES   REMARKS
Bradley INTL   MOSUNNY   73  61  65 N3        29.93R
Hartford       SUNNY     77  68  73 CALM      29.92R
Danbury        MOSUNNY   74  66  76 CALM      29.96R
Wtrbury/Oxford MOSUNNY   75  63  64 N3        29.96R
Bridgeport     SUNNY     78  68  71 CALM      29.92R
Meriden        SUNNY     76  67  73 CALM      29.92S
New Haven      SUNNY     77  69  76 CALM      29.93R
Chester        FAIR      79  64  61 CALM      29.94R
Groton         SUNNY     75  70  84 S3        29.92R
Wilimantic     NOT AVBL

 IN RI

CITY           SKY/WX    TMP DP  RH WIND       PRES   REMARKS
Providence     MOSUNNY   76  65  68 CALM      29.92R
Block Island   FOG       73  72  96 SW6       29.94R VSB 3/4
Westerly       SUNNY     74  69  85 S3        29.93S
 IN MA

CITY           SKY/WX    TMP DP  RH WIND       PRES   REMARKS
Boston         MOSUNNY   82  62  50 W5        29.90S
Worchester     SUNNY     75  60  59 W7        29.95S
Westfield      MOSUNNY   73  61  65 CALM      29.93R
Provincetown   SUNNY     75  70  84 SW9       29.91
Nantucket      PTSUNNY   72  70  93 S10       29.94R
$$

ANZ330-335-338-340-345-350-353-355-281300-
COASTAL MARINE OBSERVATIONS


STATION/POSITION TIME  SKY/WX   TEMP    WIND        PRES    VSBY  WAVE
                                AIR SEA DIR/SP/G                  HT/PER
                 (UTC)          (F)     (DEG/KT/KT) (MB)    (MI)  (FT/S)
NY HARB ENTRANCE 1150            74 74  170/  4/  4 1013.1          1/ 8
20S FIRE ISLAND  1050            76 76  260/  4/  6 1012.7          1/ 6
GREAT SOUTH BAY  1100            76 81  260/  4/  6   N/A
23 SSW MONTAUK P 1050            73 71  270/  4/  6 1013.6          1/ 6
15 E BARNEGAT LI 1122               78                N/A           1/ 6
HUDSON CANYON    NOT AVBL
KINGS POINT      1100            74 73              1012.8
EXECUTION ROCKS  1100            73      30/  2/  2   N/A
CENTRAL LI SOUND NOT AVBL
EASTERN LI SOUND 1100            71 68  130/  4/  4   N/A
ROBBINS REEF     1100            77     220/  2/  3 1012.3
$$


>>>>>>>>>>>>>>>>>>>>>>>>>>>> KEY <<<<<<<<<<<<<<<<<<<<<<<<<<<
>                                                          <
>     SKY/WX - Sky Condition/Present Weather               <
>     TMP    - Temperature in Fahrenheit                   <
>     DP     - Dew Point in Fahrenheit                     <
>     RH     - Relative Humidity in Percent                <
>     WIND   - Direction (from) and Speed in MPH           <
>     PRES   - Mean Sea Level Pressure (inches of Hg)      <
>     WCI    - Wind Chill Index                            <
>     VSB    - VISIBILITY IN MILES                         <
>     HX     - HEAT INDEX                                  <
>     TC     - TEMPERATURE IN CELSIUS                      <
>     VRB    - VARIABLE WIND DIRECTION                     <
>                                                          <
>>>>>>>>>>>>>>>>>>>>>>>>>>>> KEY <<<<<<<<<<<<<<<<<<<<<<<<<<<




USA.gov is the U.S. government's official web portal to all federal, state and local government web resources and services.